CES212 RPLL-ZSPD

Flight info

Callsign CES212
Flight time N/A
Altitude 38000
Route CAB2R CAB A461 NOMAN DCT DOTMI/K0857S1130 A470 LJG B221 SHZ W58 BK BK91A
Aircraft A320/M-SDE3FGHIRWY/LB1

Departure

Time 2026-05-07 05:33
Airport Ninoy Aquino International Airport (RPLL)

Arrival

Time N/A
Airport Shanghai Pudong International Airport (ZSPD)
Time Latitude Longitude Altitude Speed Heading
2026-05-07 05:11 14.51944 121.01225 96 ft 0 kts 45°
2026-05-07 05:21 14.51939 121.01220 96 ft 4 kts 45°
2026-05-07 05:22 14.51920 121.01200 59 ft 4 kts 45°
2026-05-07 05:22 14.51903 121.01183 61 ft 2 kts 44°
2026-05-07 05:22 14.51888 121.01164 63 ft 4 kts 80°
2026-05-07 05:22 14.51893 121.01140 62 ft 4 kts 129°
2026-05-07 05:23 14.51897 121.01135 64 ft 4 kts 135°
2026-05-07 05:23 14.51878 121.01155 62 ft 4 kts 135°
2026-05-07 05:23 14.51873 121.01160 69 ft 1 kts 135°
2026-05-07 05:25 14.51866 121.01167 65 ft 5 kts 135°
2026-05-07 05:25 14.51821 121.01214 59 ft 12 kts 135°
2026-05-07 05:26 14.51753 121.01283 65 ft 15 kts 135°
2026-05-07 05:26 14.51675 121.01365 69 ft 17 kts 135°
2026-05-07 05:26 14.51587 121.01456 69 ft 19 kts 135°
2026-05-07 05:26 14.51490 121.01555 67 ft 20 kts 136°
2026-05-07 05:27 14.51387 121.01662 64 ft 22 kts 135°
2026-05-07 05:27 14.51278 121.01774 62 ft 23 kts 135°
2026-05-07 05:27 14.51164 121.01892 62 ft 24 kts 135°
2026-05-07 05:27 14.51070 121.01988 66 ft 8 kts 137°
2026-05-07 05:28 14.51029 121.01966 69 ft 7 kts 236°
2026-05-07 05:28 14.51006 121.01927 66 ft 6 kts 239°
2026-05-07 05:28 14.50978 121.01877 69 ft 12 kts 240°
2026-05-07 05:28 14.50905 121.01745 68 ft 25 kts 240°
2026-05-07 05:29 14.50814 121.01583 64 ft 27 kts 240°
2026-05-07 05:29 14.50717 121.01410 66 ft 29 kts 240°
2026-05-07 05:29 14.50618 121.01231 65 ft 26 kts 240°
2026-05-07 05:29 14.50523 121.01061 69 ft 28 kts 240°
2026-05-07 05:30 14.50423 121.00881 65 ft 30 kts 239°
2026-05-07 05:30 14.50318 121.00695 65 ft 28 kts 242°
2026-05-07 05:30 14.50220 121.00515 66 ft 30 kts 239°
2026-05-07 05:30 14.50119 121.00335 68 ft 27 kts 241°
2026-05-07 05:31 14.50028 121.00170 63 ft 26 kts 239°
2026-05-07 05:31 14.49944 121.00018 65 ft 19 kts 242°
2026-05-07 05:31 14.49908 120.99968 67 ft 7 kts 212°
2026-05-07 05:31 14.49860 120.99973 69 ft 9 kts 151°
2026-05-07 05:32 14.49807 121.00020 63 ft 11 kts 108°
2026-05-07 05:32 14.49828 121.00085 68 ft 11 kts 59°
2026-05-07 05:32 14.49871 121.00160 63 ft 16 kts 60°
2026-05-07 05:32 14.50030 121.00449 65 ft 81 kts 60°
2026-05-07 05:33 14.50416 121.01143 68 ft 140 kts 60°
2026-05-07 05:33 14.50969 121.02134 277 ft 169 kts 63°
2026-05-07 05:33 14.51588 121.03227 842 ft 182 kts 61°
2026-05-07 05:33 14.52249 121.04366 1475 ft 185 kts 59°
2026-05-07 05:34 14.52921 121.05560 1795 ft 203 kts 61°
2026-05-07 05:34 14.53656 121.06904 1983 ft 227 kts 61°
2026-05-07 05:34 14.54471 121.08397 2280 ft 251 kts 61°
2026-05-07 05:34 14.55348 121.10002 2876 ft 261 kts 61°
2026-05-07 05:35 14.56402 121.11541 3659 ft 265 kts 47°
2026-05-07 05:35 14.57877 121.12700 4490 ft 269 kts 29°
2026-05-07 05:35 14.59620 121.13341 5274 ft 273 kts 12°
2026-05-07 05:35 14.61531 121.13461 6026 ft 278 kts
2026-05-07 05:36 14.63474 121.13468 6774 ft 281 kts
2026-05-07 05:36 14.65442 121.13475 7484 ft 284 kts
2026-05-07 05:36 14.67434 121.13484 8186 ft 288 kts
2026-05-07 05:36 14.69445 121.13436 8876 ft 292 kts 355°
2026-05-07 05:37 14.71455 121.13024 9565 ft 297 kts 344°
2026-05-07 05:37 14.73430 121.12323 10156 ft 303 kts 342°
2026-05-07 05:37 14.75488 121.11582 10363 ft 325 kts 342°
2026-05-07 05:37 14.77692 121.10791 10485 ft 346 kts 342°
2026-05-07 05:38 14.80035 121.09949 10632 ft 365 kts 342°
2026-05-07 05:38 14.82463 121.09076 11061 ft 372 kts 342°
2026-05-07 05:38 14.84926 121.08191 11598 ft 376 kts 342°
2026-05-07 05:38 14.87374 121.07311 12130 ft 379 kts 342°
2026-05-07 05:39 14.89923 121.06569 12679 ft 381 kts 351°
2026-05-07 05:39 14.92563 121.06288 13221 ft 383 kts 358°
2026-05-07 05:39 14.95233 121.06110 13757 ft 386 kts 357°
2026-05-07 05:39 14.97929 121.05928 14233 ft 389 kts 358°
2026-05-07 05:40 15.00643 121.05744 14719 ft 392 kts 357°
2026-05-07 05:40 15.03372 121.05556 15188 ft 395 kts 358°
2026-05-07 05:40 15.06122 121.05363 15668 ft 398 kts 357°
2026-05-07 05:40 15.08898 121.05169 16133 ft 401 kts 357°
2026-05-07 05:41 15.11686 121.04974 16624 ft 403 kts 357°
2026-05-07 05:41 15.14493 121.04778 17079 ft 406 kts 357°
2026-05-07 05:41 15.17326 121.04580 17549 ft 409 kts 357°
2026-05-07 05:41 15.20175 121.04382 18008 ft 412 kts 357°
2026-05-07 05:42 15.23040 121.04183 18418 ft 414 kts 357°
2026-05-07 05:42 15.25928 121.03980 18807 ft 417 kts 357°
2026-05-07 05:42 15.28830 121.03774 19189 ft 420 kts 357°
2026-05-07 05:42 15.31756 121.03566 19594 ft 422 kts 357°
2026-05-07 05:43 15.34697 121.03361 19950 ft 425 kts 356°
2026-05-07 05:43 15.37649 121.03157 20322 ft 427 kts 356°
2026-05-07 05:43 15.40631 121.02952 20680 ft 430 kts 356°
2026-05-07 05:43 15.43626 121.02745 21040 ft 432 kts 356°
2026-05-07 05:44 15.46623 121.02415 21380 ft 435 kts 350°
2026-05-07 05:44 15.49546 121.01588 21715 ft 438 kts 340°
2026-05-07 05:44 15.52325 121.00262 22058 ft 441 kts 333°
2026-05-07 05:44 15.55063 120.98799 22403 ft 443 kts 333°
2026-05-07 05:45 15.57805 120.97338 22749 ft 445 kts 333°
2026-05-07 05:45 15.60565 120.95873 23047 ft 447 kts 333°
2026-05-07 05:45 15.63342 120.94399 23366 ft 449 kts 333°
2026-05-07 05:45 15.66095 120.92936 23644 ft 450 kts 333°
2026-05-07 05:46 15.68889 120.91450 23929 ft 451 kts 333°
2026-05-07 05:46 15.71683 120.89964 24208 ft 452 kts 333°
2026-05-07 05:46 15.74482 120.88475 24486 ft 453 kts 333°
2026-05-07 05:46 15.77291 120.86980 24751 ft 454 kts 332°
2026-05-07 05:47 15.80106 120.85477 25009 ft 455 kts 332°
2026-05-07 05:47 15.82922 120.83973 25265 ft 456 kts 332°
2026-05-07 05:47 15.85747 120.82466 25525 ft 457 kts 332°
2026-05-07 05:47 15.88574 120.80960 25782 ft 458 kts 332°
2026-05-07 05:48 15.91418 120.79443 26056 ft 459 kts 332°
2026-05-07 05:48 15.94254 120.77931 26321 ft 459 kts 332°
2026-05-07 05:48 15.97097 120.76415 26573 ft 460 kts 332°
2026-05-07 05:48 15.99945 120.74896 26811 ft 461 kts 332°
2026-05-07 05:49 16.02803 120.73368 27019 ft 463 kts 332°
2026-05-07 05:49 16.05678 120.71831 27217 ft 465 kts 332°
2026-05-07 05:49 16.08556 120.70294 27440 ft 466 kts 332°
2026-05-07 05:49 16.11436 120.68754 27656 ft 467 kts 332°
2026-05-07 05:50 16.14331 120.67209 27849 ft 468 kts 332°
2026-05-07 05:50 16.17226 120.65662 28016 ft 470 kts 332°
2026-05-07 05:50 16.20140 120.64103 28209 ft 471 kts 332°
2026-05-07 05:50 16.23051 120.62543 28394 ft 471 kts 332°
2026-05-07 05:51 16.25974 120.60976 28585 ft 472 kts 332°
2026-05-07 05:51 16.28902 120.59410 28741 ft 473 kts 332°
2026-05-07 05:51 16.31827 120.57845 28892 ft 474 kts 332°
2026-05-07 05:51 16.34760 120.56270 29031 ft 475 kts 332°
2026-05-07 05:52 16.37697 120.54688 29168 ft 475 kts 332°
2026-05-07 05:52 16.40634 120.53109 29357 ft 475 kts 332°
2026-05-07 05:52 16.43575 120.51531 29557 ft 474 kts 332°
2026-05-07 05:52 16.46505 120.49964 29737 ft 474 kts 332°
2026-05-07 05:53 16.49435 120.48393 29926 ft 473 kts 332°
2026-05-07 05:53 16.52322 120.46842 30107 ft 473 kts 332°
2026-05-07 05:53 16.55242 120.45273 30270 ft 472 kts 332°
2026-05-07 05:53 16.58155 120.43706 30434 ft 472 kts 332°
2026-05-07 05:54 16.61072 120.42135 30596 ft 471 kts 332°
2026-05-07 05:54 16.63984 120.40567 30751 ft 471 kts 332°
2026-05-07 05:54 16.66895 120.39004 30889 ft 471 kts 331°
2026-05-07 05:54 16.69804 120.37439 31041 ft 471 kts 330°
2026-05-07 05:55 16.72573 120.35633 31186 ft 469 kts 322°
2026-05-07 05:55 16.75023 120.33407 31334 ft 467 kts 313°
2026-05-07 05:55 16.77267 120.30946 31488 ft 467 kts 313°
2026-05-07 05:55 16.79510 120.28487 31621 ft 467 kts 313°
2026-05-07 05:56 16.81753 120.26031 31776 ft 467 kts 313°
2026-05-07 05:56 16.83993 120.23580 31938 ft 466 kts 313°
2026-05-07 05:56 16.86230 120.21136 32101 ft 466 kts 313°
2026-05-07 05:56 16.88467 120.18687 32263 ft 466 kts 313°
2026-05-07 05:57 16.90698 120.16240 32420 ft 465 kts 313°
2026-05-07 05:57 16.92930 120.13790 32575 ft 465 kts 313°
2026-05-07 05:57 16.95156 120.11342 32732 ft 465 kts 313°
2026-05-07 05:57 16.97353 120.08927 32898 ft 464 kts 313°
2026-05-07 05:58 16.99601 120.06454 33075 ft 463 kts 313°
2026-05-07 05:58 17.01824 120.04010 33245 ft 463 kts 313°
2026-05-07 05:58 17.04040 120.01575 33437 ft 462 kts 313°
2026-05-07 05:58 17.06249 119.99147 33618 ft 461 kts 313°
2026-05-07 05:59 17.08428 119.96749 33796 ft 460 kts 313°
2026-05-07 05:59 17.10632 119.94322 33957 ft 460 kts 313°
2026-05-07 05:59 17.12831 119.91902 34116 ft 459 kts 313°
2026-05-07 05:59 17.14982 119.89532 34266 ft 459 kts 313°
2026-05-07 06:00 17.17172 119.87113 34409 ft 458 kts 313°
2026-05-07 06:00 17.19361 119.84694 34564 ft 458 kts 313°
2026-05-07 06:00 17.21548 119.82276 34710 ft 457 kts 313°
2026-05-07 06:00 17.23739 119.79855 34861 ft 457 kts 313°
2026-05-07 06:01 17.25919 119.77448 35005 ft 456 kts 313°
2026-05-07 06:01 17.28103 119.75038 35142 ft 456 kts 313°
2026-05-07 06:01 17.30283 119.72634 35257 ft 456 kts 313°
2026-05-07 06:01 17.32460 119.70228 35399 ft 455 kts 313°
2026-05-07 06:02 17.34638 119.67816 35521 ft 455 kts 313°
2026-05-07 06:02 17.38252 119.63814 35726 ft 455 kts 313°
2026-05-07 06:02 17.40422 119.61416 35857 ft 454 kts 313°
2026-05-07 06:03 17.42595 119.59017 35982 ft 453 kts 313°
2026-05-07 06:03 17.44761 119.56625 36102 ft 453 kts 313°
2026-05-07 06:03 17.46927 119.54230 36223 ft 452 kts 313°
2026-05-07 06:03 17.49087 119.51839 36345 ft 452 kts 313°
2026-05-07 06:04 17.51242 119.49449 36470 ft 451 kts 313°
2026-05-07 06:04 17.53393 119.47063 36590 ft 450 kts 313°
2026-05-07 06:04 17.55542 119.44676 36724 ft 450 kts 313°
2026-05-07 06:04 17.57685 119.42293 36841 ft 449 kts 313°
2026-05-07 06:05 17.59799 119.39941 36968 ft 448 kts 313°
2026-05-07 06:05 17.61963 119.37531 37098 ft 447 kts 313°
2026-05-07 06:05 17.64063 119.35194 37221 ft 447 kts 313°
2026-05-07 06:05 17.66195 119.32824 37347 ft 446 kts 313°
2026-05-07 06:06 17.68323 119.30460 37482 ft 445 kts 313°
2026-05-07 06:06 17.70444 119.28102 37606 ft 444 kts 313°
2026-05-07 06:06 17.72565 119.25741 37761 ft 443 kts 313°
2026-05-07 06:06 17.74677 119.23389 37870 ft 443 kts 313°
2026-05-07 06:07 17.76790 119.21031 37884 ft 445 kts 313°
2026-05-07 06:07 17.81031 119.16298 37886 ft 446 kts 313°
2026-05-07 06:08 17.85288 119.11558 37884 ft 446 kts 313°
2026-05-07 06:08 17.89537 119.06819 37886 ft 446 kts 313°
2026-05-07 06:09 17.93787 119.02078 37885 ft 446 kts 313°
2026-05-07 06:09 17.98014 118.97358 37891 ft 446 kts 313°
2026-05-07 06:10 18.02262 118.92601 37895 ft 447 kts 313°
2026-05-07 06:10 18.06509 118.87837 37901 ft 447 kts 313°
2026-05-07 06:11 18.10758 118.83074 37907 ft 447 kts 313°
2026-05-07 06:11 18.15013 118.78310 37911 ft 446 kts 313°
2026-05-07 06:12 18.19249 118.73551 37900 ft 446 kts 313°
2026-05-07 06:12 18.23487 118.68782 37919 ft 446 kts 313°
2026-05-07 06:13 18.27732 118.64022 37911 ft 445 kts 313°
2026-05-07 06:13 18.31971 118.59269 37917 ft 445 kts 313°
2026-05-07 06:14 18.36199 118.54510 37912 ft 445 kts 313°
2026-05-07 06:14 18.40426 118.49744 37918 ft 445 kts 313°
2026-05-07 06:15 18.44650 118.44983 37921 ft 445 kts 313°
2026-05-07 06:15 18.48877 118.40214 37919 ft 445 kts 313°
2026-05-07 06:16 18.53063 118.35488 37926 ft 444 kts 313°
2026-05-07 06:16 18.57280 118.30719 37920 ft 444 kts 313°
2026-05-07 06:17 18.61491 118.25960 37924 ft 444 kts 313°
2026-05-07 06:17 18.65695 118.21198 37921 ft 443 kts 313°
2026-05-07 06:18 18.69897 118.16436 37920 ft 443 kts 313°
2026-05-07 06:18 18.74097 118.11673 37923 ft 443 kts 313°
2026-05-07 06:19 18.78297 118.06903 37922 ft 443 kts 313°
2026-05-07 06:19 18.82504 118.02133 37913 ft 444 kts 313°
2026-05-07 06:20 18.86676 117.97395 37920 ft 444 kts 313°
2026-05-07 06:20 18.90877 117.92617 37919 ft 444 kts 313°
2026-05-07 06:21 18.95075 117.87846 37923 ft 444 kts 313°
2026-05-07 06:21 18.99278 117.83062 37925 ft 444 kts 313°
2026-05-07 06:22 19.03472 117.78284 37924 ft 443 kts 313°
2026-05-07 06:22 19.09764 117.71106 37926 ft 444 kts 312°
2026-05-07 06:23 19.13949 117.66315 37922 ft 444 kts 312°
2026-05-07 06:23 19.18143 117.61521 37925 ft 443 kts 313°
2026-05-07 06:24 19.22302 117.56766 37933 ft 443 kts 312°
2026-05-07 06:24 19.26491 117.51973 37933 ft 443 kts 312°
2026-05-07 06:25 19.30673 117.47186 37929 ft 442 kts 312°
2026-05-07 06:25 19.34848 117.42403 37927 ft 442 kts 312°
2026-05-07 06:26 19.39018 117.37617 37925 ft 442 kts 312°
2026-05-07 06:26 19.43181 117.32831 37929 ft 442 kts 312°
2026-05-07 06:27 19.47346 117.28036 37925 ft 442 kts 312°
2026-05-07 06:27 19.51507 117.23249 37927 ft 441 kts 312°
2026-05-07 06:28 19.55650 117.18470 37932 ft 441 kts 312°
2026-05-07 06:28 19.59788 117.13706 37943 ft 441 kts 312°
2026-05-07 06:29 19.63948 117.08924 37942 ft 440 kts 312°
2026-05-07 06:29 19.68092 117.04143 37938 ft 440 kts 312°
2026-05-07 06:30 19.72229 116.99363 37936 ft 439 kts 312°
2026-05-07 06:30 19.76355 116.94591 37933 ft 439 kts 312°
2026-05-07 06:31 19.80481 116.89813 37933 ft 439 kts 312°
2026-05-07 06:31 19.84609 116.85040 37932 ft 438 kts 312°
2026-05-07 06:32 19.88729 116.80266 37929 ft 438 kts 312°
2026-05-07 06:32 19.92817 116.75514 37931 ft 438 kts 311°
2026-05-07 06:33 19.96958 116.70762 37932 ft 438 kts 316°
2026-05-07 06:33 20.02052 116.67242 37930 ft 441 kts 336°
2026-05-07 06:34 20.04990 116.66278 37926 ft 443 kts 347°
2026-05-07 06:34 20.08030 116.65723 37925 ft 444 kts 348°
2026-05-07 06:34 20.14123 116.64614 37922 ft 445 kts 348°
2026-05-07 06:35 20.20224 116.63487 37926 ft 445 kts 348°
2026-05-07 06:35 20.26326 116.62367 37928 ft 445 kts 348°
2026-05-07 06:36 20.32431 116.61255 37940 ft 445 kts 348°
2026-05-07 06:36 20.38536 116.60143 37938 ft 445 kts 348°
2026-05-07 06:37 20.44641 116.59032 37941 ft 445 kts 348°
2026-05-07 06:37 20.50742 116.57918 37938 ft 445 kts 347°
2026-05-07 06:38 20.56852 116.56788 37942 ft 445 kts 347°
2026-05-07 06:38 20.62909 116.55679 37949 ft 444 kts 347°
2026-05-07 06:39 20.69006 116.54566 37948 ft 444 kts 347°
2026-05-07 06:39 20.75083 116.53451 37946 ft 443 kts 347°
2026-05-07 06:40 20.81162 116.52338 37948 ft 443 kts 347°
2026-05-07 06:40 20.87236 116.51216 37946 ft 443 kts 347°
2026-05-07 06:41 20.93306 116.50105 37959 ft 442 kts 347°
2026-05-07 06:41 20.99365 116.48990 37958 ft 441 kts 347°
2026-05-07 06:42 21.05369 116.47876 37953 ft 441 kts 347°
2026-05-07 06:42 21.11404 116.46768 37952 ft 440 kts 347°
2026-05-07 06:43 21.17448 116.45656 37954 ft 440 kts 347°
2026-05-07 06:43 21.23477 116.44535 37965 ft 440 kts 347°
2026-05-07 06:44 21.29498 116.43421 37959 ft 439 kts 347°
2026-05-07 06:44 21.35513 116.42313 37957 ft 438 kts 347°
2026-05-07 06:45 21.41523 116.41201 37954 ft 438 kts 347°
2026-05-07 06:45 21.47514 116.40086 37952 ft 437 kts 347°
2026-05-07 06:46 21.53522 116.38972 37962 ft 437 kts 347°
2026-05-07 06:46 21.59506 116.37865 37958 ft 436 kts 347°
2026-05-07 06:47 21.65485 116.36756 37963 ft 436 kts 347°
2026-05-07 06:47 21.71468 116.35642 37958 ft 436 kts 347°
2026-05-07 06:48 21.77396 116.34536 37962 ft 435 kts 347°
2026-05-07 06:48 21.83364 116.33418 37974 ft 435 kts 347°
2026-05-07 06:49 21.89326 116.32306 37970 ft 434 kts 347°
2026-05-07 06:49 21.95283 116.31200 37969 ft 434 kts 347°
2026-05-07 06:50 22.01232 116.30092 37972 ft 434 kts 347°
2026-05-07 06:50 22.07161 116.28985 37960 ft 433 kts 347°
2026-05-07 06:51 22.13106 116.27878 37972 ft 433 kts 347°
2026-05-07 06:51 22.19043 116.26765 37973 ft 432 kts 347°
2026-05-07 06:52 22.24972 116.25648 37960 ft 432 kts 347°
2026-05-07 06:52 22.30889 116.24533 37967 ft 431 kts 347°
2026-05-07 06:53 22.36798 116.23426 37961 ft 431 kts 347°
2026-05-07 06:53 22.42714 116.22318 37976 ft 431 kts 347°
2026-05-07 06:54 22.48622 116.21214 37973 ft 431 kts 346°
2026-05-07 06:54 22.54492 116.20111 37969 ft 431 kts 346°
2026-05-07 06:55 22.60392 116.18993 37961 ft 431 kts 346°
2026-05-07 06:55 22.66297 116.17910 37960 ft 432 kts 351°
2026-05-07 06:56 22.72326 116.18518 37961 ft 445 kts 13°
2026-05-07 06:56 22.77002 116.21083 37954 ft 459 kts 32°
2026-05-07 06:57 22.81995 116.25250 37942 ft 460 kts 32°
2026-05-07 06:57 22.87085 116.29477 37947 ft 461 kts 32°
2026-05-07 06:58 22.92137 116.33674 37953 ft 461 kts 32°
2026-05-07 06:58 22.93875 116.35121 38099 ft 458 kts 32°